Résultats de la compétition "Demi-finale NE" du 13-05-2007 organisée par le club 2105
     
  Télécharger le fichier CSV.  
     
     

 Circuit "Circuit D"

Licence Nom Prénom Temps CN
précédent
Score sur
la course
Différence
3991MOLINIERLea1:06:39N/A5308N/A
702WYMERIsabelle1:13:10N/A4836N/A
2722PARIGOTVirginie1:15:15N/A4702N/A
14238PARISMarie1:16:45N/A4610N/A
2179OLIVIERSandra1:17:15N/A4580N/A
2482COCHEYElodie1:17:47N/A4549N/A
2665ENARDSandrine1:19:18N/A4462N/A
13244VARRONStephanie1:20:32N/A4393N/A
2892MOULIERECamille1:21:17N/A4353N/A
745TINCHANTEstelle1:25:17N/A4149N/A
13911JANKECHKarine1:26:05N/A4110N/A
16029TEMPORELLISophie1:26:48N/A4076N/A
8952LEMAIRECecilia1:27:00N/A4067N/A
16297LAROCHEMaroussia1:28:06N/A4016N/A
8445FINASCeline1:29:15N/A3964N/A
18133VILLARAurélie1:32:22N/A3830N/A
1928CHAILLARDMarketa1:33:52N/A3769N/A
6805DELIEREBarbara1:34:08N/A3759N/A
2412MAGINOTEmmanuelle1:34:19N/A3751N/A
8890BARSANTIPatricia1:34:24N/A3748N/A
12179MICHONNEAUAnne1:35:26N/A3707N/A
10284GRATIENAurore1:35:30N/A3705N/A
16532VIOLLOTAriane1:35:32N/A3704N/A
826LAVIALLEFlorence1:37:07N/A3643N/A
11476DEBOCQMAINEAgnes1:37:28N/A3630N/A
6995DECARPIGNYGwladys1:37:30N/A3629N/A
720CLOEZVeronique1:37:38N/A3624N/A
13243MACABIAUEmilia1:38:12N/A3603N/A
13688FRANCOISAline1:39:25N/A3559N/A
16117TARDYLaetitia1:39:58N/A3539N/A
12528LAVETTIEmmanuelle1:40:18N/A3528N/A
9870LE-GOALLECAnaïs1:40:30N/A3520N/A
632DUBROCAChristele1:41:48N/A3476N/A
9426LERICHECamille1:42:22N/A3456N/A
17933LEGENDREM-Noelle1:43:56N/A3404N/A
10684ROCHESandrine1:49:27N/A3233N/A
743RIZZOTTOHelene1:50:52N/A3191N/A
14582LAZARDTiphaine1:51:54N/A3162N/A
14676BORCHORST RICARDClarissa1:53:09N/A3127N/A
4215CHAPUISLaurence1:53:29N/A3118N/A
10494JOUBERTOriane1:54:51N/A3081N/A
18575STENBACKAgnès1:54:57N/A3078N/A
17764CHOUKROUNGyongyike1:57:56N/A3000N/A
12953EMPTAZNathalie2:00:55N/A2926N/A
12386COUDERCElise2:01:00N/A2924N/A
16642PRIOUClaire2:01:57N/A2901N/A
2661PERDRIZETAnne2:04:00N/A2853N/A
13351DRUZETICCecilia2:04:07N/A2851N/A
7048HAGARDVirginie2:05:38N/A2816N/A
18214DUCOULOMBIERAurélie2:08:06N/A2762N/A
14246CARRIERValerie2:08:27N/A2754N/A
15655PENNETCeline2:10:54N/A2703N/A
7614BRUNETIsabelle2:11:22N/A2693N/A
13061STEINVirginie2:12:42N/A2666N/A
912LOUVETEloise2:13:26N/A2652N/A
16105REMILLEUXAngelique2:13:32N/A2650N/A
13833TRIMAILLEIsabelle2:13:47N/A2645N/A
9872AVEDIKIANDelphy2:15:51N/A2604N/A
2375MAKOVICKAEdwige2:16:31N/A2592N/A
2270VALETTEIsabelle2:18:58N/A2546N/A
9619PECHSTEINAlice2:19:40N/A2533N/A
14584FERRATONGenevieve2:23:23N/A2468N/A
14576GAFFURIA-Laure2:24:02N/A2456N/A
3565DUSIGNEStephanie2:24:20N/A2451N/A
17309BESTELFlorence2:28:16N/A2386N/A
14335MESTDAGHMarion2:28:36N/A2381N/A
17899DEPERSINIsabelle2:29:28N/A2367N/A
11384GONNEAUDAgnes2:39:32N/A2218N/A
16133MARTINEmmanuelle2:44:25N/A2152N/A
2408PIERRONA-Christine2:51:22N/A2065N/A
16309CAVARROCCeline3:04:28N/A1918N/A
12343MALASSIGNEElfege3:53:56N/A1512N/A
18637FREMONTJohanneN/AN/A0N/A
10394INDEAUXCatherineN/AN/A0N/A
15268BILLETCatherineN/AN/A0N/A
3390MATTONNathalieN/AN/A0N/A
16643CLAUDOTIsabelleN/AN/A0N/A
10822ROUXKatellN/AN/A0N/A

  Indice de confiance du circuit (moyenne des différences entre CN et score sur la course des 3 à 10 premiers) : 75






 Retour